Whitefield, NH

1:31 AM EDT on June 23, 2017 (GMT -0400)
Mount Washington Regional

Weather History for KHIE - October, 2012

Change the Weather History Date:

Wednesday, October 31, 2012

  Actual Average Record
Temperature  
Mean Temperature 55 °F -  
Max Temperature 62 °F 46 °F 64 °F (1999)
Min Temperature 48 °F 26 °F 12 °F (2002)
Degree Days  
Heating Degree Days 10    
Growing Degree Days 5 (Base 50)    
Moisture  
Dew Point 47 °F    
Average Humidity 72    
Maximum Humidity 96    
Minimum Humidity 58    
Precipitation  
Precipitation 0.19 in - - ()
Sea Level Pressure  
Sea Level Pressure 29.48 in    
Wind  
Wind Speed 8 mph (South)    
Max Wind Speed 18 mph    
Max Gust Speed 30 mph    
Visibility 10 miles    
Events Rain    
Averages and records for this station are not official NWS values.
T = Trace of Precipitation, MM = Missing Value Source: NWS Daily Summary

Daily Weather History Graph

Daily Weather History Graph

Search for Another Location

Airport or City:

Trip Planner

Search our weather history database for the weather conditions in past years. The results will help you decide how hot, cold, wet, or windy it might be!

Date:

Astronomy

Oct. 31, 2012 Rise Set
Actual Time 7:22 AM EDT 5:36 PM EDT
Civil Twilight 6:52 AM EDT 6:06 PM EDT
Nautical Twilight 6:18 AM EDT 6:40 PM EDT
Astronomical Twilight 5:44 AM EDT 7:14 PM EDT
Moon 6:40 PM EDT (10/31) 9:05 AM EDT (10/31)
Length of Visible Light 11h 14m
Length of Day
10h 13m
Full, 97% of the Moon is Illuminated
Oct 31
Full
Nov 6
Last Quarter
Nov 13
New
Nov 20
First Quarter
Nov 28
Full

Hourly Weather History & Observations

Time (EDT) Temp. Dew Point Humidity Pressure Visibility Wind Dir Wind Speed Gust Speed Precip Events Conditions
12:52 AM 60.1 °F 53.1 °F 78% 29.52 in 10.0 mi South 9.2 mph - 0.00 in Rain Light Rain
1:52 AM 60.1 °F 54.0 °F 80% 29.50 in 10.0 mi SSE 8.1 mph - 0.10 in   Mostly Cloudy
2:52 AM 55.9 °F 53.1 °F 90% 29.52 in 4.0 mi West 4.6 mph - 0.03 in Rain Rain
3:52 AM 55.0 °F 53.1 °F 93% 29.51 in 10.0 mi NW 5.8 mph - 0.04 in   Mostly Cloudy
4:52 AM 53.1 °F 52.0 °F 96% 29.52 in 10.0 mi Calm Calm - N/A   Mostly Cloudy
5:52 AM 59.0 °F 51.1 °F 75% 29.48 in 9.0 mi SE 12.7 mph 21.9 mph 0.01 in Rain Light Rain
6:52 AM 60.1 °F 48.9 °F 67% 29.48 in 10.0 mi SE 13.8 mph 21.9 mph 0.00 in   Mostly Cloudy
7:52 AM 59.0 °F 48.9 °F 69% 29.47 in 10.0 mi SE 13.8 mph 19.6 mph N/A   Partly Cloudy
8:52 AM 61.0 °F 50.0 °F 67% 29.45 in 10.0 mi SE 13.8 mph 23.0 mph N/A   Partly Cloudy
9:52 AM 61.0 °F 50.0 °F 67% 29.47 in 10.0 mi SSE 12.7 mph - 0.00 in Rain Light Rain
10:04 AM 62.6 °F 51.8 °F 68% 29.47 in 10.0 mi SSE 10.4 mph 18.4 mph 0.00 in   Mostly Cloudy
10:11 AM 60.8 °F 51.8 °F 72% 29.46 in 10.0 mi SSE 16.1 mph 21.9 mph 0.00 in   Mostly Cloudy
10:52 AM 60.1 °F 51.1 °F 72% 29.47 in 10.0 mi SSE 18.4 mph 29.9 mph 0.00 in Rain Light Rain
11:52 AM 60.1 °F 51.1 °F 72% 29.47 in 10.0 mi SSE 12.7 mph - 0.01 in   Mostly Cloudy
12:52 PM 60.1 °F 46.9 °F 62% 29.46 in 10.0 mi SSE 10.4 mph - N/A   Mostly Cloudy
1:52 PM 59.0 °F 46.0 °F 62% 29.45 in 10.0 mi SSE 6.9 mph - N/A   Mostly Cloudy
2:52 PM 59.0 °F 44.1 °F 58% 29.44 in 10.0 mi South 8.1 mph 21.9 mph N/A   Mostly Cloudy
3:52 PM 55.9 °F 46.0 °F 69% 29.46 in 10.0 mi South 9.2 mph - 0.00 in Rain Light Rain
4:21 PM 55.4 °F 46.4 °F 72% 29.46 in 10.0 mi South 9.2 mph - 0.00 in Rain Light Rain
4:31 PM 55.4 °F 44.6 °F 67% 29.46 in 10.0 mi SW 8.1 mph 17.3 mph 0.00 in   Overcast
4:42 PM 53.6 °F 44.6 °F 72% 29.46 in 10.0 mi Variable 4.6 mph - 0.00 in   Overcast
4:52 PM 53.1 °F 44.1 °F 71% 29.47 in 10.0 mi SSW 6.9 mph - 0.00 in   Overcast
5:21 PM 51.8 °F 44.6 °F 76% 29.46 in 10.0 mi Calm Calm - N/A   Overcast
5:52 PM 52.0 °F 43.0 °F 71% 29.48 in 10.0 mi West 5.8 mph - N/A   Overcast
6:52 PM 52.0 °F 39.9 °F 63% 29.49 in 10.0 mi Calm Calm - N/A   Overcast
7:52 PM 51.1 °F 39.9 °F 66% 29.49 in 10.0 mi Calm Calm - N/A   Overcast
8:52 PM 50.0 °F 41.0 °F 71% 29.49 in 10.0 mi Calm Calm - N/A   Overcast
9:52 PM 50.0 °F 39.9 °F 68% 29.50 in 10.0 mi Calm Calm - N/A   Overcast
10:52 PM 48.9 °F 41.0 °F 74% 29.50 in 10.0 mi Calm Calm - N/A   Overcast
11:52 PM 48.0 °F 41.0 °F 77% 29.50 in 10.0 mi Calm Calm - N/A   Overcast